FW7213 Weather Reports


Display with metric or nautical units.
time (UTC)temp
F
wind
direction
speed
MPH
gust
MPH
rain 1hr
in
rain 24hr
in
rain mn
in
humidity
%
barometer
mb
20260903060108 77 0 0.0 0.0 0.00 0.00 0.00 93 1017.4
20260903055558 77 0 0.0 0.0 0.00 0.00 0.00 93 1017.4
20260903055059 77 0 0.0 0.0 0.00 0.00 0.00 92 1017.5
20260903054604 77 0 0.0 0.0 0.00 0.00 0.00 93 1017.5
20260903054059 77 0 0.0 0.0 0.00 0.00 0.00 92 1017.5
20260903053555 77 0 0.0 0.0 0.00 0.00 0.00 92 1017.5
20260903053103 77 0 0.0 0.0 0.00 0.00 0.00 92 1017.5
20260903052558 77 0 0.0 0.0 0.00 0.00 0.00 92 1017.5
20260903052059 77 0 0.0 0.0 0.00 0.00 0.00 92 1017.4
20260903051610 78 0 0.0 0.0 0.00 0.00 0.00 92 1017.5
20260903051055 78 0 0.0 0.0 0.00 0.00 0.00 91 1017.5
20260903050601 78 0 0.0 0.0 0.00 0.00 0.00 92 1017.4
20260903050111 78 0 0.0 0.0 0.00 0.00 0.00 91 1017.5
20260903045557 78 0 0.0 0.0 0.00 0.00 0.00 91 1017.4
20260903045057 78 0 0.0 0.0 0.00 0.00 0.00 91 1017.6
20260903044605 78 0 0.0 0.0 0.00 0.00 0.00 90 1017.5
20260903044056 78 0 0.0 0.0 0.00 0.00 0.00 90 1017.5
20260903043555 78 0 0.0 0.0 0.00 0.00 0.00 90 1017.6
20260903043111 78 0 0.0 0.0 0.00 0.00 0.00 90 1017.6
20260903042555 78 0 0.0 0.0 0.00 0.00 0.00 90 1017.6
20260903042101 78 0 0.0 0.0 0.00 0.00 0.00 90 1017.5
20260903041608 78 0 0.0 0.0 0.00 0.00 0.00 89 1017.5
20260903041056 78 0 0.0 0.0 0.00 0.00 0.00 89 1017.5
20260903040601 79 0 0.0 0.0 0.00 0.00 0.00 89 1017.6
20260903040105 79 0 0.0 0.0 0.00 0.00 0.00 89 1017.6
20260903035555 79 0 0.0 0.0 0.00 0.00 0.00 88 1017.4
20260903035055 79 0 0.0 0.0 0.00 0.00 0.00 88 1017.5
20260903034559 79 0 0.0 0.0 0.00 0.00 0.00 87 1017.5
20260903034056 79 0 0.0 0.0 0.00 0.00 0.00 87 1017.5
20260903033555 79 0 0.0 0.0 0.00 0.00 0.00 87 1017.5
20260903033107 80 0 0.0 0.0 0.00 0.00 0.00 87 1017.6
20260903032558 80 0 0.0 0.0 0.00 0.00 0.00 86 1017.5
20260903032058 80 0 0.0 0.0 0.00 0.00 0.00 86 1017.6
20260903031601 80 0 0.0 0.0 0.00 0.00 0.00 85 1017.5
20260903031056 81 0 0.0 0.0 0.00 0.00 0.00 84 1017.6
20260903030556 81 0 0.0 0.0 0.00 0.00 0.00 83 1017.5
20260903030110 81 0 0.0 0.0 0.00 0.00 0.00 83 1017.5
20260903025555 81 0 0.0 0.0 0.00 0.00 0.00 83 1017.5
20260903025055 81 0 0.0 0.0 0.00 0.00 0.00 82 1017.4
20260903024608 81 0 0.0 0.0 0.00 0.00 0.00 82 1017.4
20260903024055 81 0 0.0 0.0 0.00 0.00 0.00 82 1017.3
20260903023559 81 0 0.0 0.0 0.00 0.00 0.00 81 1017.3
20260903023108 81 0 0.0 0.0 0.00 0.00 0.00 81 1017.3
20260903022554 82 0 0.0 0.0 0.00 0.00 0.00 81 1017.3
20260903022056 82 0 0.0 0.0 0.00 0.00 0.00 81 1017.3
20260903021604 82 0 0.0 0.0 0.00 0.00 0.00 80 1017.2
20260903021058 82 0 0.0 0.0 0.00 0.00 0.00 80 1017.1
20260903020558 83 0 0.0 0.0 0.00 0.00 0.00 79 1017.1
20260903020105 83 0 0.0 1.0 0.00 0.00 0.00 79 1017.1
20260903015600 83 0 0.0 1.0 0.00 0.00 0.00 78 1017.0
20260903015054 83 0 0.0 1.0 0.00 0.00 0.00 77 1017.1
20260903014602 83 0 0.0 1.0 0.00 0.00 0.00 76 1017.0
20260903014058 84 0 0.0 0.0 0.00 0.00 0.00 75 1016.9
20260903013559 84 0 0.0 0.0 0.00 0.00 0.00 79 1016.8
20260903013109 84 0 0.0 1.0 0.00 0.00 0.00 79 1016.8
20260903012556 85 0 0.0 1.0 0.00 0.00 0.00 77 1016.6
20260903012055 85 0 0.0 1.0 0.00 0.00 0.00 72 1016.6
20260903011605 84 145 0.0 1.0 0.00 0.00 0.00 72 1016.6
20260903011055 84 0 0.0 1.0 0.00 0.00 0.00 79 1016.5
20260903010554 84 0 0.0 0.0 0.00 0.00 0.00 81 1016.6
20260903010104 84 0 0.0 0.0 0.00 0.00 0.00 76 1016.5
20260903005555 85 0 0.0 0.0 0.00 0.00 0.00 77 1016.4
20260903005059 85 0 0.0 0.0 0.00 0.00 0.00 76 1016.3
20260903004618 85 0 0.0 0.0 0.00 0.00 0.00 75 1016.2
20260903004058 86 0 0.0 0.0 0.00 0.00 0.00 75 1016.1
20260903003556 86 0 0.0 0.0 0.00 0.00 0.00 74 1016.1
20260903003123 87 0 0.0 0.0 0.00 0.00 0.00 74 1016.1
20260903002555 87 0 0.0 0.0 0.00 0.00 0.00 71 1016.0
20260903002055 87 0 0.0 0.0 0.00 0.00 0.00 73 1016.0
20260903001607 88 0 0.0 0.0 0.00 0.00 0.00 69 1016.0
20260903001054 89 0 0.0 0.0 0.00 0.00 0.00 70 1016.0
20260903000555 89 0 0.0 0.0 0.00 0.00 0.00 64 1015.9
20260902235559 91 0 0.0 1.0 0.00 0.00 0.00 62 1015.9
20260902235058 91 0 0.0 1.0 0.00 0.00 0.00 58 1015.7
20260902234600 92 0 0.0 1.0 0.00 0.00 0.00 60 1015.9
20260902234055 92 0 0.0 1.0 0.00 0.00 0.00 60 1015.9
20260902233555 93 0 0.0 1.0 0.00 0.00 0.00 56 1015.7
20260902233105 93 0 0.0 1.0 0.00 0.00 0.00 54 1015.7
20260902232555 93 0 0.0 1.0 0.00 0.00 0.00 54 1015.7
20260902232055 94 0 0.0 1.0 0.00 0.00 0.00 54 1015.6
20260902231602 94 0 0.0 1.0 0.00 0.00 0.00 57 1015.6
20260902231059 94 0 0.0 3.0 0.00 0.00 0.00 53 1015.7
20260902230559 94 0 0.0 3.0 0.00 0.00 0.00 51 1015.6
20260902230106 95 0 0.0 3.0 0.00 0.00 0.00 53 1015.5
20260902225558 96 0 0.0 3.0 0.00 0.00 0.00 52 1015.6
20260902225058 96 0 0.0 2.0 0.00 0.00 0.00 53 1015.5
20260902224600 96 97 0.0 1.0 0.00 0.00 0.00 51 1015.5
20260902224055 96 143 0.0 1.0 0.00 0.00 0.00 47 1015.6
20260902223555 97 0 0.0 2.0 0.00 0.00 0.00 50 1015.6
20260902223121 97 0 0.0 2.0 0.00 0.00 0.00 50 1015.5
20260902222555 96 224 0.0 1.0 0.00 0.00 0.00 47 1015.7
20260902222058 97 140 0.0 1.0 0.00 0.00 0.00 49 1015.7
20260902221605 96 86 0.0 1.0 0.00 0.00 0.00 49 1015.8
20260902221059 96 0 0.0 1.0 0.00 0.00 0.00 54 1015.8
20260902220600 97 0 0.0 3.0 0.00 0.00 0.00 47 1015.8
20260902220106 96 0 0.0 3.0 0.00 0.00 0.00 51 1015.9
20260902215558 96 0 0.0 1.0 0.00 0.00 0.00 53 1016.0
20260902215059 95 0 0.0 1.0 0.00 0.00 0.00 52 1016.0
20260902214604 96 0 0.0 2.0 0.00 0.00 0.00 53 1016.0
20260902214058 95 0 0.0 5.0 0.00 0.00 0.00 52 1016.1
20260902213556 95 82 0.0 5.0 0.00 0.00 0.00 55 1016.1
20260902213100 96 87 0.0 2.0 0.00 0.00 0.00 48 1016.2
20260902212559 96 0 0.0 3.0 0.00 0.00 0.00 52 1016.3
20260902212055 97 152 1.0 4.0 0.00 0.00 0.00 52 1016.3
20260902211604 97 0 1.0 4.0 0.00 0.00 0.00 52 1016.3
20260902211054 96 39 1.0 4.0 0.00 0.00 0.00 50 1016.4
20260902210555 97 86 1.0 4.0 0.00 0.00 0.00 48 1016.5
20260902210106 97 0 1.0 4.0 0.00 0.00 0.00 51 1016.5
20260902205554 96 180 2.0 4.0 0.00 0.00 0.00 48 1016.6
20260902205057 97 70 0.0 5.0 0.00 0.00 0.00 51 1016.6
20260902204637 97 138 2.0 5.0 0.00 0.00 0.00 51 1016.6
20260902204058 96 137 2.0 4.0 0.00 0.00 0.00 54 1016.6
20260902203558 96 144 2.0 4.0 0.00 0.00 0.00 55 1016.6
20260902203100 96 161 2.0 4.0 0.00 0.00 0.00 51 1016.6
20260902202555 96 114 2.0 6.0 0.00 0.00 0.00 52 1016.7
20260902202055 95 0 0.0 6.0 0.00 0.00 0.00 55 1016.6
20260902201606 95 133 2.0 5.0 0.00 0.00 0.00 51 1016.7
20260902201059 95 0 0.0 2.0 0.00 0.00 0.00 50 1016.8
20260902200555 94 0 0.0 3.0 0.00 0.00 0.00 56 1016.7
20260902200105 93 0 0.0 3.0 0.00 0.00 0.00 55 1016.9
20260902195559 94 93 0.0 3.0 0.00 0.00 0.00 57 1017.0
20260902195059 95 95 1.0 4.0 0.00 0.00 0.00 55 1017.0
20260902194559 96 122 0.0 4.0 0.00 0.00 0.00 55 1017.0
20260902194055 96 143 2.0 6.0 0.00 0.00 0.00 50 1017.1
20260902193558 96 137 2.0 6.0 0.00 0.00 0.00 54 1017.2
20260902193108 96 98 2.0 4.0 0.00 0.00 0.00 55 1017.4
20260902192557 96 141 1.0 3.0 0.00 0.00 0.00 51 1017.3
20260902192055 96 15 1.0 8.0 0.00 0.00 0.00 55 1017.4
20260902191607 96 53 1.0 8.0 0.00 0.00 0.00 56 1017.5
20260902191059 96 110 1.0 4.0 0.00 0.00 0.00 54 1017.6
20260902190558 97 120 1.0 4.0 0.00 0.00 0.00 51 1017.7
20260902190105 96 114 1.0 3.0 0.00 0.00 0.00 56 1017.6
20260902185558 95 72 1.0 7.0 0.00 0.00 0.00 51 1017.7
20260902185059 95 121 1.0 7.0 0.00 0.00 0.00 53 1017.9
20260902184608 95 148 4.0 7.0 0.00 0.00 0.00 53 1018.0
20260902184058 95 152 1.0 4.0 0.00 0.00 0.00 58 1018.1
20260902183558 94 320 1.0 7.0 0.00 0.00 0.00 58 1018.1
20260902183114 93 96 2.0 7.0 0.00 0.00 0.00 56 1018.2
20260902182556 93 115 1.0 7.0 0.00 0.00 0.00 58 1018.5
20260902182059 93 33 0.0 4.0 0.00 0.00 0.00 62 1018.5
20260902181614 93 112 1.0 3.0 0.00 0.00 0.00 57 1018.5
20260902181055 93 0 1.0 5.0 0.00 0.00 0.00 59 1018.6
20260902180558 93 4 2.0 8.0 0.00 0.00 0.00 60 1018.7
20260902180100 94 19 1.0 8.0 0.00 0.00 0.00 57 1018.8
20260902175558 94 155 3.0 6.0 0.00 0.00 0.00 61 1018.7
20260902175102 93 15 1.0 4.0 0.00 0.00 0.00 62 1018.8
20260902174601 93 328 2.0 8.0 0.00 0.00 0.00 61 1018.9
20260902174058 93 146 2.0 8.0 0.00 0.00 0.00 62 1019.0
20260902173558 92 173 2.0 8.0 0.00 0.00 0.00 62 1019.1
20260902173119 92 174 1.0 5.0 0.00 0.00 0.00 58 1019.1
20260902172554 93 74 2.0 5.0 0.00 0.00 0.00 56 1019.1
20260902172055 93 134 1.0 5.0 0.00 0.00 0.00 59 1019.1
20260902171606 92 162 1.0 5.0 0.00 0.00 0.00 58 1019.1
20260902171100 92 0 1.0 5.0 0.00 0.00 0.00 57 1019.2
20260902170559 92 96 0.0 7.0 0.00 0.00 0.00 61 1019.3
20260902170103 91 92 2.0 7.0 0.00 0.00 0.00 60 1019.4
20260902165558 91 87 2.0 7.0 0.00 0.00 0.00 57 1019.4
20260902165059 91 82 2.0 5.0 0.00 0.00 0.00 59 1019.4
20260902164607 91 133 2.0 6.0 0.00 0.00 0.00 60 1019.5
20260902164058 91 101 2.0 6.0 0.00 0.00 0.00 61 1019.4
20260902163555 91 95 1.0 4.0 0.00 0.00 0.00 63 1019.4
20260902163107 90 143 0.0 3.0 0.00 0.00 0.00 67 1019.5
20260902162558 90 0 1.0 4.0 0.00 0.00 0.00 64 1019.4
20260902162058 90 30 1.0 6.0 0.00 0.00 0.00 66 1019.5
20260902161601 90 99 1.0 6.0 0.00 0.00 0.00 67 1019.6
20260902161100 90 143 3.0 6.0 0.00 0.00 0.00 63 1019.6
20260902160558 89 167 2.0 6.0 0.00 0.00 0.00 67 1019.7
20260902160105 89 120 0.0 4.0 0.00 0.00 0.00 71 1019.7
20260902155558 89 96 0.0 3.0 0.00 0.00 0.00 71 1019.8
20260902155058 89 306 0.0 4.0 0.00 0.00 0.00 72 1019.9
20260902154604 88 0 0.0 4.0 0.00 0.00 0.00 72 1019.9
20260902154055 88 0 0.0 2.0 0.00 0.00 0.00 71 1019.9
20260902153558 88 0 0.0 2.0 0.00 0.00 0.00 72 1019.8
20260902153108 88 0 0.0 2.0 0.00 0.00 0.00 75 1019.8
20260902152602 87 0 0.0 3.0 0.00 0.00 0.00 76 1019.8
20260902152058 87 0 0.0 3.0 0.00 0.00 0.00 76 1019.9
20260902151559 87 68 0.0 3.0 0.00 0.00 0.00 77 1019.8
20260902151058 87 0 0.0 4.0 0.00 0.00 0.00 74 1019.8
20260902150558 86 0 0.0 4.0 0.00 0.00 0.00 78 1019.9
20260902150058 86 79 0.0 2.0 0.00 0.00 0.00 76 1019.9
20260902145558 86 226 0.0 2.0 0.00 0.00 0.00 79 1019.9
20260902145058 86 0 0.0 1.0 0.00 0.00 0.00 78 1019.8
20260902144559 85 23 0.0 5.0 0.00 0.00 0.00 79 1019.8
20260902144055 85 0 1.0 5.0 0.00 0.00 0.00 79 1019.8
20260902143559 85 18 0.0 3.0 0.00 0.00 0.00 83 1019.8
20260902143102 84 0 0.0 3.0 0.00 0.00 0.00 84 1019.7
20260902142559 84 0 0.0 3.0 0.00 0.00 0.00 84 1019.7
20260902142059 84 13 0.0 2.0 0.00 0.00 0.00 84 1019.6
20260902141600 84 0 0.0 2.0 0.00 0.00 0.00 82 1019.9
20260902141058 83 0 0.0 2.0 0.00 0.00 0.00 83 1019.8
20260902140558 83 6 0.0 1.0 0.00 0.00 0.00 86 1019.8
20260902140057 83 77 0.0 3.0 0.00 0.00 0.00 84 1019.8
20260902135557 82 0 0.0 3.0 0.00 0.00 0.00 85 1019.8
20260902135058 82 86 0.0 2.0 0.00 0.00 0.00 84 1019.9
20260902134610 82 0 0.0 1.0 0.00 0.00 0.00 86 1019.8
20260902134057 82 0 0.0 1.0 0.00 0.00 0.00 89 1019.8
20260902133556 81 0 0.0 1.0 0.00 0.00 0.00 87 1019.7
20260902133105 81 0 0.0 2.0 0.00 0.00 0.00 89 1019.8
20260902132559 80 0 0.0 2.0 0.00 0.00 0.00 91 1019.8
20260902132102 80 8 0.0 2.0 0.00 0.00 0.00 88 1019.8
20260902131601 80 0 0.0 0.0 0.00 0.00 0.00 91 1019.7
20260902131058 80 0 0.0 2.0 0.00 0.00 0.00 89 1019.7
20260902130557 79 100 0.0 2.0 0.00 0.00 0.00 89 1019.8
20260902130115 79 0 0.0 2.0 0.00 0.00 0.00 90 1019.8
20260902125559 78 0 0.0 2.0 0.00 0.00 0.00 91 1019.7
20260902125059 77 0 0.0 1.0 0.00 0.00 0.00 96 1019.7
20260902124603 76 0 0.0 2.0 0.00 0.00 0.00 94 1019.7
20260902124058 75 89 0.0 2.0 0.00 0.00 0.00 96 1019.7
20260902123558 74 0 0.0 1.0 0.00 0.00 0.00 97 1019.6
20260902123109 74 0 0.0 1.0 0.00 0.00 0.00 97 1019.5
20260902122558 73 135 0.0 1.0 0.00 0.00 0.00 97 1019.5
20260902122058 73 91 0.0 1.0 0.00 0.00 0.00 97 1019.4
20260902121558 73 0 0.0 1.0 0.00 0.00 0.00 97 1019.4
20260902121059 72 0 0.0 0.0 0.00 0.00 0.00 97 1019.4
20260902120601 72 0 0.0 0.0 0.00 0.00 0.00 97 1019.3
20260902120107 72 0 0.0 0.0 0.00 0.00 0.00 97 1019.4
20260902115601 72 0 0.0 0.0 0.00 0.00 0.00 97 1019.3
20260902115059 72 0 0.0 0.0 0.00 0.00 0.00 97 1019.1
20260902114604 72 0 0.0 0.0 0.00 0.00 0.00 97 1019.1
20260902114100 72 0 0.0 0.0 0.00 0.00 0.00 97 1019.1
20260902113559 72 0 0.0 0.0 0.00 0.00 0.00 97 1019.1
20260902113100 72 0 0.0 0.0 0.00 0.00 0.00 97 1019.1
20260902112558 72 0 0.0 0.0 0.00 0.00 0.00 97 1019.0
20260902112059 72 0 0.0 0.0 0.00 0.00 0.00 97 1019.1
20260902111604 72 0 0.0 0.0 0.00 0.00 0.00 97 1019.1
20260902111059 72 0 0.0 0.0 0.00 0.00 0.00 97 1018.9
20260902110558 72 0 0.0 0.0 0.00 0.00 0.00 97 1018.9
20260902110113 72 0 0.0 0.0 0.00 0.00 0.00 97 1018.8
20260902105558 72 0 0.0 0.0 0.00 0.00 0.00 97 1018.7
20260902105058 72 0 0.0 0.0 0.00 0.00 0.00 97 1018.7
20260902104616 72 0 0.0 0.0 0.00 0.00 0.00 97 1018.7
20260902104059 72 0 0.0 0.0 0.00 0.00 0.00 97 1018.7
20260902103558 72 0 0.0 0.0 0.00 0.00 0.00 97 1018.7
20260902103122 72 0 0.0 0.0 0.00 0.00 0.00 97 1018.6
20260902102558 72 0 0.0 0.0 0.00 0.00 0.00 97 1018.8
20260902102058 72 0 0.0 0.0 0.00 0.00 0.00 97 1018.7
20260902101609 72 0 0.0 0.0 0.00 0.00 0.00 97 1018.7
20260902101100 72 0 0.0 0.0 0.00 0.00 0.00 97 1018.7
20260902100559 72 0 0.0 0.0 0.00 0.00 0.00 97 1018.6
20260902100059 72 0 0.0 0.0 0.00 0.00 0.00 97 1018.5
20260902095559 72 0 0.0 0.0 0.00 0.00 0.00 97 1018.5
20260902095059 72 0 0.0 0.0 0.00 0.00 0.00 97 1018.5
20260902094602 72 0 0.0 0.0 0.00 0.00 0.00 97 1018.5
20260902094058 73 0 0.0 0.0 0.00 0.00 0.00 97 1018.4
20260902093558 73 0 0.0 0.0 0.00 0.00 0.00 97 1018.4
20260902093104 73 0 0.0 0.0 0.00 0.00 0.00 97 1018.3
20260902092603 73 0 0.0 0.0 0.00 0.00 0.00 97 1018.2
20260902092100 73 0 0.0 0.0 0.00 0.00 0.00 97 1018.2
20260902091557 73 0 0.0 0.0 0.00 0.00 0.00 97 1018.1
20260902091058 73 0 0.0 0.0 0.00 0.00 0.00 97 1018.0
20260902090559 73 0 0.0 0.0 0.00 0.00 0.00 97 1018.0
20260902085555 73 0 0.0 0.0 0.00 0.00 0.00 97 1018.0
20260902085059 73 0 0.0 0.0 0.00 0.00 0.00 97 1017.9
20260902084602 73 0 0.0 0.0 0.00 0.00 0.00 97 1018.0
20260902084058 73 0 0.0 0.0 0.00 0.00 0.00 97 1017.9
20260902083559 73 0 0.0 0.0 0.00 0.00 0.00 97 1017.9
20260902083059 73 0 0.0 0.0 0.00 0.00 0.00 97 1017.9
20260902082558 73 0 0.0 0.0 0.00 0.00 0.00 97 1017.9
20260902082058 73 0 0.0 0.0 0.00 0.00 0.00 97 1017.9
20260902081605 73 0 0.0 0.0 0.00 0.00 0.00 97 1017.9
20260902081057 73 0 0.0 0.0 0.00 0.00 0.00 97 1018.0
20260902080559 74 0 0.0 0.0 0.00 0.00 0.00 97 1017.9
20260902080059 74 0 0.0 1.0 0.00 0.00 0.00 97 1017.9
20260902075601 74 0 0.0 1.0 0.00 0.00 0.00 97 1017.9
20260902075058 74 0 0.0 1.0 0.00 0.00 0.00 97 1017.9
20260902074604 74 0 0.0 1.0 0.00 0.00 0.00 97 1017.9
20260902074100 74 0 0.0 1.0 0.00 0.00 0.00 96 1017.9
20260902073559 74 0 0.0 1.0 0.00 0.00 0.00 97 1018.0
20260902073108 74 0 0.0 0.0 0.00 0.00 0.00 97 1017.9
20260902072601 74 0 0.0 0.0 0.00 0.00 0.00 96 1018.0
20260902072059 74 0 0.0 0.0 0.00 0.00 0.00 96 1018.0
20260902071601 74 0 0.0 0.0 0.00 0.00 0.00 96 1018.0
20260902071058 74 0 0.0 0.0 0.00 0.00 0.00 96 1017.9
20260902070557 74 0 0.0 0.0 0.00 0.00 0.00 96 1017.9
20260902070106 74 0 0.0 0.0 0.00 0.00 0.00 96 1017.9
20260902065558 74 0 0.0 0.0 0.00 0.00 0.00 96 1017.9
20260902065100 74 0 0.0 0.0 0.00 0.00 0.00 96 1017.9
20260902064605 74 0 0.0 0.0 0.00 0.00 0.00 96 1018.0
20260902064102 74 0 0.0 0.0 0.00 0.00 0.00 96 1018.0
20260902063559 75 0 0.0 0.0 0.00 0.00 0.00 96 1018.0
20260902063113 75 0 0.0 0.0 0.00 0.00 0.00 96 1018.0
20260902062556 75 0 0.0 0.0 0.00 0.00 0.00 96 1018.1
20260902062058 75 0 0.0 0.0 0.00 0.00 0.00 95 1018.0
20260902061625 75 0 0.0 0.0 0.00 0.00 0.00 95 1018.1
20260902061107 75 0 0.0 0.0 0.00 0.00 0.00 95 1018.1
20260902060559 75 0 0.0 1.0 0.00 0.00 0.00 95 1018.1